GW3060 Weather Reports


time (UTC)temp
C
wind
direction
speed
KPH
gust
KPH
rain 1hr
cm
rain 24hr
cm
rain mn
cm
humidity
%
barometer
mb
20260504151014 20 104 4.8 11.3 0.00 0.00 0.00 44 1016.5
20260504150515 20 222 1.6 6.4 0.00 0.00 0.00 45 1016.7
20260504141016 17 232 3.2 6.4 0.00 0.00 0.00 58 1016.5
20260504140526 17 204 1.6 4.8 0.00 0.00 0.00 59 1016.5
20260504130515 10 198 1.6 3.2 0.00 0.00 0.00 95 1016.6
20260504110515 3 125 0.0 0.0 0.00 0.00 0.00 93 1016.6
20260504100526 3 126 0.0 0.0 0.00 0.00 0.00 92 1016.6
20260504081515 4 126 0.0 0.0 0.00 0.00 0.00 90 1016.4
20260504081026 5 126 0.0 0.0 0.00 0.00 0.00 89 1016.4
20260504080515 5 126 0.0 0.0 0.00 0.00 0.00 89 1016.4
20260504050515 6 125 0.0 0.0 0.00 0.00 0.00 84 1016.6
20260504045527 6 126 0.0 0.0 0.00 0.00 0.00 84 1016.6
20260504045015 6 126 0.0 0.0 0.00 0.00 0.00 84 1016.7
20260504044516 6 126 0.0 0.0 0.00 0.00 0.00 85 1016.7
20260504044016 6 126 0.0 0.0 0.00 0.00 0.00 85 1016.5
20260504043516 6 126 0.0 0.0 0.00 0.00 0.00 85 1016.5
20260504043015 6 126 0.0 0.0 0.00 0.00 0.00 85 1016.4
20260504042515 6 125 0.0 0.0 0.00 0.00 0.00 85 1016.4
20260504042016 6 126 0.0 0.0 0.00 0.00 0.00 85 1016.4
20260504041515 6 126 0.0 0.0 0.00 0.00 0.00 85 1016.4
20260504041016 6 126 0.0 0.0 0.00 0.00 0.00 85 1016.4
20260504040516 6 125 0.0 0.0 0.00 0.00 0.00 85 1016.4
20260504040016 6 126 0.0 0.0 0.00 0.00 0.00 85 1016.5
20260504035516 6 126 0.0 0.0 0.00 0.00 0.00 85 1016.5
20260504035027 6 126 0.0 0.0 0.00 0.00 0.00 85 1016.4
20260504034527 6 126 0.0 0.0 0.00 0.00 0.00 84 1016.4
20260504034015 6 126 0.0 0.0 0.00 0.00 0.00 84 1016.4
20260504033516 6 126 0.0 0.0 0.00 0.00 0.00 82 1016.5
20260504033027 6 125 0.0 0.0 0.00 0.00 0.00 82 1016.5
20260504032516 6 126 0.0 0.0 0.00 0.00 0.00 82 1016.4
20260504032015 6 125 0.0 0.0 0.00 0.00 0.00 82 1016.4
20260504031527 6 126 0.0 0.0 0.00 0.00 0.00 82 1016.4
20260504031015 6 126 0.0 0.0 0.00 0.00 0.00 82 1016.4
20260504030516 7 126 0.0 0.0 0.00 0.00 0.00 82 1016.5
20260504030016 7 126 0.0 0.0 0.00 0.00 0.00 81 1016.6
20260504025516 7 126 0.0 0.0 0.00 0.00 0.00 80 1016.6
20260504025016 7 126 0.0 0.0 0.00 0.00 0.00 80 1016.5
20260504024527 7 126 0.0 0.0 0.00 0.00 0.00 79 1016.5
20260504024027 7 126 0.0 0.0 0.00 0.00 0.00 79 1016.4
20260504023516 7 126 0.0 0.0 0.00 0.00 0.00 78 1016.4
20260504023016 7 126 0.0 0.0 0.00 0.00 0.00 77 1016.4
20260504022516 7 126 0.0 0.0 0.00 0.00 0.00 77 1016.3
20260504022016 7 126 0.0 0.0 0.00 0.00 0.00 76 1016.3
20260504021516 8 125 0.0 0.0 0.00 0.00 0.00 76 1016.2
20260504021016 8 126 0.0 0.0 0.00 0.00 0.00 75 1016.2
20260504020527 8 125 0.0 0.0 0.00 0.00 0.00 74 1016.1
20260504020016 8 126 0.0 0.0 0.00 0.00 0.00 74 1016.0
20260504015516 8 126 0.0 0.0 0.00 0.00 0.00 73 1016.0
20260504015016 8 126 0.0 0.0 0.00 0.00 0.00 72 1015.9
20260504014527 8 126 0.0 0.0 0.00 0.00 0.00 71 1015.9
20260504014016 9 126 0.0 0.0 0.00 0.00 0.00 70 1015.9
20260504013516 9 126 0.0 0.0 0.00 0.00 0.00 70 1015.8
20260504013016 9 126 0.0 0.0 0.00 0.00 0.00 69 1015.7
20260504012516 10 126 0.0 0.0 0.00 0.00 0.00 68 1015.8
20260504012016 10 126 0.0 0.0 0.00 0.00 0.00 67 1015.8
20260504011517 10 125 0.0 0.0 0.00 0.00 0.00 66 1015.8
20260504011016 10 126 0.0 0.0 0.00 0.00 0.00 66 1015.8
20260504010516 10 126 0.0 0.0 0.00 0.00 0.00 65 1015.8
20260504010016 10 126 0.0 0.0 0.00 0.00 0.00 63 1015.7
20260504005516 11 125 0.0 0.0 0.00 0.00 0.00 62 1015.7
20260504005016 11 126 0.0 0.0 0.00 0.00 0.00 60 1015.7
20260504004516 11 126 0.0 0.0 0.00 0.00 0.00 58 1015.6
20260504004016 11 126 0.0 0.0 0.00 0.00 0.00 58 1015.5
20260504003516 12 126 0.0 0.0 0.00 0.00 0.00 57 1015.5
20260504003027 12 126 0.0 0.0 0.00 0.00 0.00 56 1015.4
20260504002516 12 126 0.0 0.0 0.00 0.00 0.00 57 1015.4
20260504002016 12 126 0.0 1.6 0.00 0.00 0.00 56 1015.4
20260504001516 13 126 0.0 1.6 0.00 0.00 0.00 57 1015.3
20260504001027 13 126 0.0 1.6 0.00 0.00 0.00 52 1015.3
20260504000516 13 126 0.0 1.6 0.00 0.00 0.00 52 1015.2
20260504000016 13 125 0.0 0.0 0.00 0.00 0.00 50 1015.2
20260503235527 13 125 0.0 0.0 0.00 0.00 0.00 51 1015.2
20260503235016 14 125 0.0 1.6 0.00 0.00 0.00 50 1015.2
20260503234527 14 125 0.0 1.6 0.00 0.00 0.00 49 1015.2
20260503234016 15 51 0.0 0.0 0.00 0.00 0.00 45 1015.2
20260503233528 15 50 0.0 0.0 0.00 0.00 0.00 48 1015.3
20260503233017 15 50 0.0 0.0 0.00 0.00 0.00 44 1015.3
20260503232516 15 50 0.0 0.0 0.00 0.00 0.00 45 1015.3
20260503232016 15 50 0.0 1.6 0.00 0.00 0.00 43 1015.2
20260503231516 16 50 0.0 1.6 0.00 0.00 0.00 43 1015.2
20260503231016 16 50 0.0 1.6 0.00 0.00 0.00 44 1015.2
20260503230516 16 50 0.0 1.6 0.00 0.00 0.00 37 1015.2
20260503230016 16 50 0.0 1.6 0.00 0.00 0.00 38 1015.2
20260503225516 16 50 0.0 4.8 0.00 0.00 0.00 38 1015.2
20260503225016 16 50 1.6 4.8 0.00 0.00 0.00 36 1015.3
20260503224516 16 159 0.0 3.2 0.00 0.00 0.00 35 1015.3
20260503224029 16 159 1.6 3.2 0.00 0.00 0.00 36 1015.3
20260503223516 16 151 1.6 3.2 0.00 0.00 0.00 35 1015.4
20260503223027 17 177 0.0 3.2 0.00 0.00 0.00 35 1015.4
20260503222516 17 191 1.6 4.8 0.00 0.00 0.00 31 1015.4
20260503222016 17 192 1.6 4.8 0.00 0.00 0.00 33 1015.5
20260503221516 17 164 0.0 6.4 0.00 0.00 0.00 34 1015.6
20260503221016 17 207 3.2 16.1 0.00 0.00 0.00 32 1015.7
20260503220516 17 238 4.8 16.1 0.00 0.00 0.00 31 1015.8
20260503220016 17 83 0.0 8.0 0.00 0.00 0.00 32 1015.8
20260503215516 17 82 3.2 8.0 0.00 0.00 0.00 31 1015.8
20260503215016 17 57 1.6 4.8 0.00 0.00 0.00 31 1015.8
20260503214516 17 22 0.0 4.8 0.00 0.00 0.00 33 1015.9
20260503214016 17 89 0.0 6.4 0.00 0.00 0.00 34 1015.9
20260503213516 17 37 1.6 12.9 0.00 0.00 0.00 31 1016.0
20260503213016 17 224 1.6 12.9 0.00 0.00 0.00 32 1016.0
20260503212516 17 213 1.6 8.0 0.00 0.00 0.00 35 1016.0
20260503212018 17 222 3.2 9.7 0.00 0.00 0.00 32 1016.1
20260503211516 17 233 1.6 8.0 0.00 0.00 0.00 35 1016.0
20260503211017 17 180 1.6 8.0 0.00 0.00 0.00 32 1016.0
20260503210516 17 312 1.6 11.3 0.00 0.00 0.00 33 1016.0
20260503210016 17 56 1.6 11.3 0.00 0.00 0.00 32 1016.1
20260503205516 17 238 1.6 4.8 0.00 0.00 0.00 33 1016.1
20260503205016 17 235 3.2 6.4 0.00 0.00 0.00 33 1016.1
20260503204539 17 169 1.6 8.0 0.00 0.00 0.00 34 1016.1
20260503204016 17 208 3.2 8.0 0.00 0.00 0.00 32 1016.2
20260503203516 17 346 1.6 9.7 0.00 0.00 0.00 32 1016.2
20260503203016 17 23 0.0 9.7 0.00 0.00 0.00 34 1016.3
20260503202527 17 196 3.2 9.7 0.00 0.00 0.00 33 1016.3
20260503202016 17 159 3.2 8.0 0.00 0.00 0.00 31 1016.4
20260503201516 17 99 1.6 8.0 0.00 0.00 0.00 32 1016.6
20260503201016 17 206 1.6 11.3 0.00 0.00 0.00 32 1016.7
20260503200516 17 21 4.8 11.3 0.00 0.00 0.00 30 1016.6
20260503200028 17 279 1.6 12.9 0.00 0.00 0.00 34 1016.7
20260503195517 16 120 1.6 16.1 0.00 0.00 0.00 31 1016.8
20260503195017 17 62 3.2 16.1 0.00 0.00 0.00 34 1016.9
20260503194517 16 116 1.6 6.4 0.00 0.00 0.00 35 1016.8
20260503194017 16 87 3.2 6.4 0.00 0.00 0.00 34 1016.9
20260503193517 16 120 3.2 8.0 0.00 0.00 0.00 33 1017.0
20260503193017 16 135 3.2 9.7 0.00 0.00 0.00 34 1017.1
20260503192516 17 38 3.2 12.9 0.00 0.00 0.00 34 1017.2
20260503192017 17 72 3.2 12.9 0.00 0.00 0.00 31 1017.2
20260503191518 17 79 4.8 12.9 0.00 0.00 0.00 36 1017.3
20260503191017 17 42 4.8 8.0 0.00 0.00 0.00 35 1017.4
20260503190516 17 126 1.6 6.4 0.00 0.00 0.00 37 1017.4
20260503190017 17 94 1.6 6.4 0.00 0.00 0.00 34 1017.4
20260503185527 17 358 3.2 6.4 0.00 0.00 0.00 33 1017.5
20260503185016 17 54 3.2 8.0 0.00 0.00 0.00 40 1017.6
20260503184517 17 96 1.6 11.3 0.00 0.00 0.00 36 1017.6
20260503184016 17 104 4.8 11.3 0.00 0.00 0.00 32 1017.7
20260503183516 17 213 3.2 8.0 0.00 0.00 0.00 36 1017.8
20260503183017 17 325 3.2 8.0 0.00 0.00 0.00 38 1017.9
20260503182518 17 102 1.6 4.8 0.00 0.00 0.00 40 1017.9
20260503182016 16 328 1.6 6.4 0.00 0.00 0.00 42 1018.0
20260503181516 16 106 1.6 8.0 0.00 0.00 0.00 39 1018.1
20260503181028 16 204 3.2 8.0 0.00 0.00 0.00 34 1018.2
20260503180516 16 213 1.6 9.7 0.00 0.00 0.00 39 1018.3
20260503180017 16 22 4.8 9.7 0.00 0.00 0.00 41 1018.3
20260503175517 16 312 3.2 9.7 0.00 0.00 0.00 43 1018.2
20260503174528 16 117 1.6 9.7 0.00 0.00 0.00 41 1018.3
20260503174017 16 50 1.6 9.7 0.00 0.00 0.00 49 1018.3
20260503173528 15 215 3.2 8.0 0.00 0.00 0.00 39 1018.4
20260503173017 15 203 3.2 9.7 0.00 0.00 0.00 37 1018.5
20260503172517 16 188 4.8 11.3 0.00 0.00 0.00 41 1018.5
20260503172017 15 338 3.2 11.3 0.00 0.00 0.00 39 1018.5
20260503171517 15 180 3.2 8.0 0.00 0.00 0.00 42 1018.7
20260503171016 15 19 1.6 9.7 0.00 0.00 0.00 38 1018.8
20260503170517 15 243 3.2 9.7 0.00 0.00 0.00 45 1019.0